Tracking 22454 objects as of 5-Mar-2021
HD Live streaming from Space Station
objects crossing your sky now

FLOCK 4A 15

Track FLOCK 4A 15 now!
10-day predictions
FLOCK 4A 15 is classified as:


NORAD ID: 44100
Int'l Code: 2019-018Y
Perigee: 492.9 km
Apogee: 507.8 km
Inclination: 97.4 °
Period: 94.5 minutes
Semi major axis: 6871 km
RCS: Unknown
Launch date: April 1, 2019
Source: United States (US)
Launch site: SRIHARIKOTA (SRI)
aabbcc
Your satellite tracking list
Your tracking list is empty




NASA's NSSDC Master Catalog

Two Line Element Set (TLE):
1 44100U 19018Y   21063.66321412  .00002502  00000-0  10551-3 0  9999
2 44100  97.3761 126.9805 0010846 356.7557   3.3609 15.24193901107040
Source of the keplerian elements: AFSPC